TimeAKST,TemperatureF,Dew PointF,Humidity,Sea Level PressureIn,VisibilityMPH,Wind Direction,Wind SpeedMPH,Gust SpeedMPH,PrecipitationIn,Events,Conditions,WindDirDegrees,DateUTC
12:06 AM,28.0,27.0,96,29.35,2.5,Calm,Calm,-,0.00,Snow,Light Snow,0,2012-11-15 09:06:00
12:14 AM,28.0,27.0,96,29.35,3.0,Calm,Calm,-,0.00,Snow,Light Snow,0,2012-11-15 09:14:00
12:33 AM,28.0,27.0,96,29.35,2.5,Calm,Calm,-,0.00,Snow,Light Snow,0,2012-11-15 09:33:00
12:45 AM,28.0,27.0,96,29.36,1.5,Calm,Calm,-,0.01,Snow,Light Snow,0,2012-11-15 09:45:00
12:53 AM,28.0,27.0,96,29.36,0.8,Calm,Calm,-,0.02,Snow,Light Snow,0,2012-11-15 09:53:00
1:08 AM,28.0,27.0,96,29.36,1.2,Calm,Calm,-,0.01,Snow,Light Snow,0,2012-11-15 10:08:00
1:27 AM,28.0,27.0,96,29.36,1.5,Calm,Calm,-,0.02,Snow,Light Snow,0,2012-11-15 10:27:00
1:38 AM,28.0,27.0,96,29.36,2.5,Calm,Calm,-,0.02,Snow,Light Snow,0,2012-11-15 10:38:00
1:53 AM,28.0,27.0,96,29.37,2.0,Calm,Calm,-,0.02,Snow,Light Snow,0,2012-11-15 10:53:00
2:02 AM,28.0,27.0,96,29.36,1.2,Calm,Calm,-,0.00,Snow,Light Snow,0,2012-11-15 11:02:00
2:43 AM,28.0,27.0,96,29.37,1.8,Calm,Calm,-,0.02,Snow,Light Snow,0,2012-11-15 11:43:00
3:53 AM,28.9,28.0,96,29.39,1.5,Calm,Calm,-,0.02,Snow,Light Snow,0,2012-11-15 12:53:00
4:53 AM,28.9,28.0,96,29.39,1.5,Calm,Calm,-,0.03,Snow,Light Snow,0,2012-11-15 13:53:00
5:15 AM,28.9,28.0,96,29.39,0.8,Calm,Calm,-,0.02,Snow,Light Snow,0,2012-11-15 14:15:00
5:22 AM,28.9,28.0,96,29.39,1.5,Calm,Calm,-,0.02,Snow,Light Snow,0,2012-11-15 14:22:00
6:08 AM,28.9,28.0,96,29.40,2.0,Calm,Calm,-,0.00,Snow,Light Snow,0,2012-11-15 15:08:00
6:39 AM,28.9,28.0,96,29.41,2.0,Calm,Calm,-,0.00,Snow,Light Snow,0,2012-11-15 15:39:00
6:53 AM,28.9,28.0,96,29.42,2.0,Calm,Calm,-,0.01,Snow,Light Snow,0,2012-11-15 15:53:00
7:02 AM,28.9,28.0,96,29.41,1.8,Calm,Calm,-,0.00,Snow,Light Snow,0,2012-11-15 16:02:00
7:18 AM,28.9,28.0,96,29.42,2.0,WNW,3.5,-,0.00,Snow,Light Snow,290,2012-11-15 16:18:00
7:26 AM,28.9,28.0,96,29.42,2.5,West,3.5,-,0.00,Snow,Light Snow,270,2012-11-15 16:26:00
7:35 AM,28.9,28.0,96,29.42,2.5,Calm,Calm,-,0.00,Snow,Light Snow,0,2012-11-15 16:35:00
7:53 AM,28.9,28.0,96,29.43,2.5,WNW,3.5,-,0.01,Snow,Light Snow,290,2012-11-15 16:53:00
8:02 AM,28.9,28.0,96,29.43,3.0,West,3.5,-,0.00,Snow,Light Snow,280,2012-11-15 17:02:00
8:29 AM,28.9,28.0,96,29.43,4.0,Calm,Calm,-,0.00,,Overcast,0,2012-11-15 17:29:00
8:43 AM,28.9,28.0,96,29.43,1.8,Calm,Calm,-,0.00,Snow,Light Snow,0,2012-11-15 17:43:00
8:53 AM,28.9,28.0,96,29.44,2.5,Calm,Calm,-,0.00,Snow,Light Snow,0,2012-11-15 17:53:00
9:10 AM,28.9,28.0,96,29.44,1.5,Calm,Calm,-,0.01,Snow,Light Snow,0,2012-11-15 18:10:00
9:38 AM,28.9,28.0,96,29.44,0.8,Calm,Calm,-,0.02,Snow,Light Snow,0,2012-11-15 18:38:00
9:48 AM,28.4,28.4,100,29.45,0.5,Calm,Calm,-,0.02,Fog-Snow,Snow,0,2012-11-15 18:48:00
9:53 AM,28.9,28.0,96,29.45,0.5,Calm,Calm,-,0.03,Fog-Snow,Snow,0,2012-11-15 18:53:00
10:01 AM,28.9,28.0,96,29.44,1.0,Calm,Calm,-,0.00,Snow,Light Snow,0,2012-11-15 19:01:00
10:18 AM,28.9,28.0,96,29.44,0.8,Calm,Calm,-,0.00,Snow,Light Snow,0,2012-11-15 19:18:00
10:41 AM,28.9,28.9,100,29.45,1.0,Calm,Calm,-,0.01,Snow,Light Snow,0,2012-11-15 19:41:00
10:53 AM,28.9,28.9,100,29.46,1.5,Calm,Calm,-,0.01,Snow,Light Snow,0,2012-11-15 19:53:00
11:21 AM,28.9,28.9,100,29.45,2.5,Calm,Calm,-,0.00,Snow,Light Snow,0,2012-11-15 20:21:00
11:31 AM,28.9,28.9,100,29.46,1.8,WNW,3.5,-,0.00,Snow,Light Snow,290,2012-11-15 20:31:00
11:48 AM,28.4,28.4,100,29.46,2.0,Variable,3.5,-,0.01,Snow,Light Snow,0,2012-11-15 20:48:00
11:53 AM,28.9,28.9,100,29.47,1.5,Calm,Calm,-,0.01,Snow,Light Snow,0,2012-11-15 20:53:00
12:10 PM,28.9,28.9,100,29.46,2.5,Calm,Calm,-,0.00,Snow,Light Snow,0,2012-11-15 21:10:00
12:38 PM,30.0,30.0,100,29.46,1.8,Calm,Calm,-,0.00,Snow,Light Snow,0,2012-11-15 21:38:00
12:53 PM,30.0,28.9,96,29.46,1.0,Calm,Calm,-,0.00,Snow,Light Snow,0,2012-11-15 21:53:00
1:12 PM,30.0,30.0,100,29.46,2.5,Calm,Calm,-,0.01,Snow,Light Snow,0,2012-11-15 22:12:00
1:24 PM,30.0,30.0,100,29.46,1.2,Calm,Calm,-,0.01,Snow,Light Snow,0,2012-11-15 22:24:00
1:53 PM,30.0,30.0,100,29.46,1.8,Calm,Calm,-,0.01,Snow,Light Snow,0,2012-11-15 22:53:00
2:08 PM,30.0,30.0,100,29.46,2.0,Calm,Calm,-,0.00,,Overcast,0,2012-11-15 23:08:00
2:17 PM,30.0,30.0,100,29.46,1.5,Variable,3.5,-,0.01,Snow,Light Snow,0,2012-11-15 23:17:00
2:53 PM,30.0,30.0,100,29.47,3.0,WNW,3.5,-,0.01,,Overcast,300,2012-11-15 23:53:00
3:01 PM,30.0,30.0,100,29.46,1.8,West,3.5,-,0.00,Snow,Light Snow,270,2012-11-16 00:01:00
3:20 PM,30.0,30.0,100,29.46,2.0,Variable,3.5,-,0.00,Snow,Light Snow,0,2012-11-16 00:20:00
3:37 PM,30.0,30.0,100,29.46,1.5,Calm,Calm,-,0.01,Snow,Light Snow,0,2012-11-16 00:37:00
3:48 PM,30.2,30.2,100,29.47,2.0,Calm,Calm,-,0.01,Snow,Light Snow,0,2012-11-16 00:48:00
3:53 PM,30.0,30.0,100,29.47,1.2,Calm,Calm,-,0.01,Snow,Light Snow,0,2012-11-16 00:53:00
4:25 PM,30.0,30.0,100,29.47,0.8,Calm,Calm,-,0.02,Snow,Light Snow,0,2012-11-16 01:25:00
4:38 PM,30.0,30.0,100,29.48,1.0,Calm,Calm,-,0.03,Snow,Light Snow,0,2012-11-16 01:38:00
4:50 PM,30.2,30.2,100,29.48,0.8,Calm,Calm,-,0.04,Snow,Light Snow,0,2012-11-16 01:50:00
4:53 PM,30.0,30.0,100,29.49,1.0,Calm,Calm,-,0.04,Snow,Light Snow,0,2012-11-16 01:53:00
5:06 PM,30.0,30.0,100,29.48,0.5,NW,3.5,-,0.03,Fog-Snow,Snow,310,2012-11-16 02:06:00
5:23 PM,30.0,30.0,100,29.49,1.0,Calm,Calm,-,0.05,Snow,Light Snow,0,2012-11-16 02:23:00
5:53 PM,30.0,28.9,96,29.50,2.0,West,4.6,-,0.06,Snow,Light Snow,270,2012-11-16 02:53:00
6:20 PM,28.9,28.9,100,29.51,4.0,WNW,4.6,-,0.00,Snow,Light Snow,290,2012-11-16 03:20:00
6:35 PM,28.9,28.9,100,29.51,3.0,Variable,3.5,-,0.00,Snow,Light Snow,0,2012-11-16 03:35:00
6:40 PM,28.9,28.9,100,29.51,2.5,West,4.6,-,0.00,Snow,Light Snow,280,2012-11-16 03:40:00
6:49 PM,28.4,28.4,100,29.51,1.0,West,5.8,-,0.01,Snow,Light Snow,280,2012-11-16 03:49:00
6:53 PM,28.9,28.9,100,29.52,1.2,Variable,3.5,-,0.01,Snow,Light Snow,0,2012-11-16 03:53:00
7:12 PM,28.9,28.9,100,29.52,3.0,WNW,3.5,-,0.01,Snow,Light Snow,300,2012-11-16 04:12:00
7:53 PM,28.9,28.9,100,29.53,4.0,West,4.6,-,0.01,Snow,Light Snow,260,2012-11-16 04:53:00
8:13 PM,28.9,28.9,100,29.54,2.5,West,4.6,-,0.00,Snow,Light Snow,280,2012-11-16 05:13:00
8:20 PM,28.9,28.9,100,29.54,2.0,Variable,4.6,-,0.01,Snow,Light Snow,0,2012-11-16 05:20:00
8:48 PM,28.4,28.4,100,29.55,1.5,Calm,Calm,-,0.02,Snow,Light Snow,0,2012-11-16 05:48:00
8:53 PM,28.9,28.9,100,29.55,1.5,Calm,Calm,-,0.02,Snow,Light Snow,0,2012-11-16 05:53:00
9:00 PM,28.9,28.0,96,29.55,3.0,Calm,Calm,-,0.00,Snow,Light Snow,0,2012-11-16 06:00:00
9:18 PM,28.9,28.0,96,29.55,4.0,Calm,Calm,-,0.00,Snow,Light Snow,0,2012-11-16 06:18:00
9:37 PM,28.0,28.0,100,29.56,5.0,WNW,3.5,-,0.00,,Overcast,290,2012-11-16 06:37:00
9:53 PM,28.0,28.0,100,29.57,6.0,West,4.6,-,0.00,,Overcast,280,2012-11-16 06:53:00
10:53 PM,28.0,28.0,100,29.58,5.0,WNW,3.5,-,0.00,,Overcast,290,2012-11-16 07:53:00
11:53 PM,28.0,27.0,96,29.59,6.0,WNW,3.5,-,N/A,,Overcast,300,2012-11-16 08:53:00